Temp
4 5 5 5 5 5 5 5 5 5 5 5 6 6 6 6 6 6 6 6 7 6 6 6 6 6 6 6 4 4 4 5 7 8 9 10 11 11 10 10 10 10 10 10 9
3 4 4 5 5 5 5 5 5 5 5 5 5 5 5 6 6 5 6 5 5 5 5 6 6 6 5 5 5 3 4 5 6 7 8 9 10 10 10 9 9 9 9 9 8
3 3 3 4 4 4 4 4 4 4 4 4 5 4 4 5 5 4 5 4 4 5 5 5 5 3 2 3 3 4 4 5 6 7 8 8 8 9 8 9 9 9 8 8 8
3 3 3 3 4 4 4 4 4 4 4 4 4 3 3 3 3 3 3 4 4 4 4 4 4 4 2 3 4 5 5 5 6 6 6 7 7 7 7 7 8 8 8 8 8
3 2 3 3 3 3 3 3 3 3 3 3 3 2 2 3 3 3 3 3 3 4 4 4 3 3 2 3 4 5 5 6 6 6 6 6 6 6 6 6 7 7 7 7 7
2 2 2 2 2 3 2 2 2 2 2 2 2 2 2 3 2 3 3 2 3 3 3 3 1 2 3 3 4 4 5 5 5 5 5 5 5 5 5 5 5 6 6 6 7
2 2 2 2 2 2 2 2 2 2 2 1 1 1 2 3 2 2 3 2 2 2 1 1 1 1 2 2 3 3 3 4 4 4 4 5 5 5 5 5 6 6 6 6 6
2 1 1 1 1 1 1 1 2 1 1 1 1 1 2 2 2 2 2 3 2 2 2 1 0 1 1 1 2 2 3 3 4 4 5 5 5 5 6 6 7 6 6 6 6
1 -0 -0 -0 0 1 1 1 1 1 1 1 1 1 2 2 1 2 2 1 -1 1 2 2 2 1 0 1 1 2 3 4 4 5 6 6 5 6 6 6 7 7 7 7 7
0 -1 -2 -1 -0 -0 -0 0 1 1 1 1 1 1 1 -0 -1 1 1 1 1 1 1 2 0 -0 0 1 3 4 4 5 5 5 5 5 5 5 5 5 5 6 6 6 7
-1 -2 -3 -2 -1 -1 -0 -0 0 0 1 1 -1 2 1 -1 2 2 2 -0 1 -0 -0 -0 -0 1 2 2 3 3 3 3 3 4 4 4 4 4 4 5 5 5 5 6 6
-4 -5 -4 -2 -1 -1 -1 -0 0 0 1 1 1 1 1 1 2 2 2 -0 -1 -0 1 1 1 2 2 3 3 3 3 3 3 3 3 4 5 5 5 5 5 5 5 6 6
-5 -5 -3 -2 -1 -1 -1 -1 -0 -0 0 -0 1 0 1 1 0 -0 1 -1 -1 1 1 2 3 3 2 2 2 3 2 2 3 3 3 3 4 5 6 7 7 6 5 5 6
-6 -5 -3 -2 -2 -2 -1 -1 -0 -0 1 -0 0 -0 0 0 -0 -0 0 -1 -0 0 1 2 2 3 2 2 2 2 3 3 3 3 3 3 4 4 6 6 7 6 6 6 5
-5 -3 -3 -2 -2 -1 -1 -1 -0 -0 1 0 -1 -1 -1 -0 -0 -1 0 -0 -0 1 0 1 2 2 1 1 2 2 2 2 2 2 2 2 3 5 6 7 7 7 7 7 6
-4 -4 -3 -2 -2 -2 -1 -1 -1 -1 2 0 -0 -1 -0 0 1 0 -1 -0 -0 0 1 1 1 2 2 1 2 1 1 2 1 1 2 2 4 4 5 6 4 6 6 6 6
-4 -3 -3 -3 -2 -2 -1 -1 -2 -1 1 0 0 -1 -1 0 1 1 1 1 0 1 2 3 2 2 1 1 1 1 1 2 2 3 3 1 2 5 4 3 4 4 4 4 4
-4 -3 -3 -3 -3 -2 -2 -2 -2 1 0 -1 -1 -2 -1 -0 0 1 1 1 1 2 2 2 3 3 2 1 1 1 1 2 1 2 3 2 0 5 4 3 3 3 3 4 4
-4 -4 -3 -3 -3 -2 -3 -4 -2 -2 -3 -2 -1 -1 0 0 -1 -1 -1 0 1 1 2 2 3 2 2 1 1 2 2 2 1 2 2 3 4 3 1 1 2 2 2 3 4
-4 -3 -3 -3 -3 -3 -3 -4 -3 -4 -3 -4 -3 -2 -1 -1 -2 -2 -2 -0 -1 -1 -1 -0 -0 1 1 1 1 1 1 1 -1 0 2 5 5 0 0 -0 1 2 2 3 3
-4 -4 -4 -4 -4 -4 -4 -4 -5 -5 -4 -5 -4 -4 -4 -4 -4 -4 -3 -3 -2 -3 -4 -3 -3 -2 1 -1 1 1 1 1 0 0 1 0 -0 -1 -1 -1 -1 -0 0 1 3
-5 -5 -4 -4 -4 -6 -5 -6 -5 -7 -5 -7 -6 -6 -6 -5 -5 -5 -4 -4 -4 -4 -4 -4 -5 -4 -0 1 1 1 2 1 0 1 1 2 1 -1 -1 -1 -0 1 1 1 1
-6 -5 -5 -5 -6 -6 -6 -6 -7 -7 -7 -7 -7 -7 -7 -6 -6 -5 -5 -5 -5 -5 -5 -5 -5 -3 -1 0 1 1 1 -1 1 -0 -1 -1 1 -0 0 -1 -0 0 1 1 1
-6 -6 -6 -6 -7 -7 -7 -7 -8 -7 -8 -8 -8 -8 -7 -7 -6 -6 -6 -6 -6 -6 -6 -6 -6 -6 -4 -2 -4 -3 -2 -1 1 -0 0 1 -1 0 -0 -0 -1 0 0 -0 0
-5 -7 -7 -8 -8 -8 -8 -8 -7 -8 -8 -8 -8 -8 -8 -7 -7 -6 -6 -6 -6 -6 -6 -7 -7 -6 -5 -4 -4 -4 -4 -2 -2 -2 0 1 1 0 0 -1 -0 -0 -0 -0 -1
-7 -9 -8 -8 -9 -9 -9 -8 -7 -8 -8 -8 -9 -8 -7 -7 -7 -7 -7 -7 -7 -7 -7 -7 -7 -6 -5 -5 -4 -3 -2 -2 -2 -2 -1 -0 1 -1 -1 -2 -2 -1 -1 -1 -1
-7 -8 -8 -9 -9 -8 -8 -8 -9 -9 -9 -9 -8 -8 -8 -8 -8 -8 -9 -8 -8 -8 -8 -8 -8 -7 -5 -4 -4 -3 -1 -1 -1 -1 -0 0 -2 -2 -1 -2 -1 -2 -3 -3 -2
Height
3099 3098 3096 3094 3093 3091 3090 3088 3086 3086 3085 3085 3084 3083 3082 3081 3080 3077 3077 3077 3076 3077 3077 3077 3078 3081 3081 3083 3087 3092 3089 3079 3085 3088 3087 3092 3091 3091 3088 3089 3091 3092 3093 3098 3092
3094 3092 3091 3090 3089 3086 3084 3082 3081 3081 3080 3079 3078 3077 3075 3073 3073 3071 3070 3071 3069 3070 3071 3072 3073 3074 3075 3077 3080 3083 3079 3075 3083 3085 3084 3085 3085 3084 3084 3084 3085 3087 3089 3089 3087
3089 3087 3085 3084 3083 3081 3080 3077 3076 3076 3075 3073 3073 3071 3069 3067 3067 3060 3065 3064 3064 3064 3065 3067 3069 3071 3072 3074 3077 3077 3068 3077 3078 3080 3081 3079 3077 3078 3078 3077 3080 3081 3083 3084 3084
3081 3081 3080 3078 3077 3075 3074 3073 3072 3071 3070 3068 3067 3066 3063 3064 3068 3059 3060 3061 3061 3062 3062 3063 3064 3066 3070 3072 3074 3073 3071 3073 3073 3075 3075 3073 3072 3070 3072 3071 3075 3075 3076 3077 3077
3074 3073 3073 3072 3071 3070 3069 3068 3067 3066 3065 3063 3063 3061 3060 3059 3058 3052 3057 3057 3056 3057 3058 3060 3060 3062 3063 3067 3071 3068 3068 3068 3068 3069 3069 3068 3066 3065 3060 3067 3069 3067 3068 3070 3071
3066 3066 3065 3064 3064 3063 3063 3063 3061 3061 3060 3058 3057 3055 3054 3054 3053 3048 3052 3053 3053 3053 3055 3056 3060 3061 3062 3063 3065 3067 3064 3061 3062 3061 3062 3062 3059 3061 3054 3059 3058 3058 3058 3061 3063
3057 3057 3057 3057 3057 3058 3057 3056 3056 3055 3055 3054 3052 3050 3048 3051 3048 3045 3047 3049 3050 3050 3052 3055 3055 3057 3059 3059 3059 3059 3057 3056 3055 3056 3053 3057 3047 3048 3050 3050 3047 3048 3049 3051 3053
3048 3048 3049 3050 3051 3052 3051 3050 3050 3049 3049 3049 3047 3045 3043 3044 3044 3043 3043 3044 3046 3046 3047 3049 3050 3052 3053 3056 3054 3055 3054 3050 3049 3049 3047 3048 3035 3043 3045 3045 3041 3041 3041 3043 3046
3040 3040 3041 3044 3045 3046 3045 3045 3045 3044 3044 3044 3044 3043 3039 3041 3040 3039 3039 3039 3041 3041 3042 3045 3046 3046 3051 3053 3051 3051 3046 3045 3041 3042 3041 3040 3036 3039 3041 3039 3037 3036 3036 3037 3038
3031 3032 3034 3038 3039 3040 3040 3041 3040 3040 3040 3040 3041 3043 3040 3040 3036 3035 3035 3038 3040 3040 3040 3041 3042 3043 3046 3048 3043 3044 3040 3038 3036 3038 3036 3035 3032 3034 3035 3032 3029 3029 3030 3031 3032
3022 3024 3028 3032 3034 3035 3037 3038 3040 3038 3036 3038 3039 3036 3034 3034 3033 3032 3034 3035 3037 3040 3039 3039 3040 3039 3041 3042 3042 3041 3040 3036 3034 3034 3034 3031 3028 3029 3027 3025 3021 3020 3021 3024 3025
3014 3018 3023 3026 3029 3032 3033 3033 3034 3035 3033 3032 3032 3030 3030 3031 3031 3029 3031 3033 3036 3037 3039 3040 3036 3037 3040 3039 3039 3037 3036 3032 3031 3030 3029 3025 3021 3019 3017 3014 3012 3012 3013 3016 3019
3011 3013 3017 3022 3026 3029 3030 3032 3032 3030 3030 3028 3028 3028 3029 3030 3029 3031 3030 3032 3033 3035 3036 3034 3034 3034 3035 3035 3034 3033 3032 3030 3028 3026 3024 3021 3014 3011 3007 3003 3003 3003 3005 3008 3012
3005 3010 3015 3019 3025 3024 3027 3029 3028 3028 3027 3026 3025 3026 3027 3028 3028 3030 3029 3031 3031 3031 3033 3031 3031 3030 3031 3030 3032 3028 3028 3026 3024 3022 3018 3019 3006 3005 3002 2998 2997 2996 2997 2998 3003
3002 3009 3012 3016 3020 3021 3025 3026 3027 3027 3025 3024 3023 3023 3026 3028 3030 3027 3028 3027 3028 3029 3030 3026 3027 3027 3025 3025 3026 3023 3025 3022 3021 3019 3016 3012 3008 2999 2996 2991 2989 2991 2992 2995 2998
3001 3005 3009 3013 3016 3019 3021 3023 3027 3026 3022 3023 3022 3023 3025 3026 3028 3027 3025 3025 3025 3025 3024 3021 3023 3022 3020 3020 3021 3021 3020 3018 3017 3015 3011 2999 3004 2994 2989 2986 2987 2984 2986 2992 2996
3000 3004 3007 3010 3014 3016 3019 3023 3025 3021 3017 3021 3022 3022 3022 3024 3025 3025 3024 3023 3023 3023 3018 3016 3016 3016 3017 3016 3016 3018 3018 3015 3010 3005 2997 3000 2997 2985 2986 2986 2987 2984 2983 2986 2986
2997 3003 3006 3009 3011 3012 3017 3020 3021 3015 3015 3016 3018 3019 3019 3021 3021 3020 3020 3018 3019 3018 3016 3013 3010 3009 3009 3011 3012 3013 3014 3013 3006 3001 2996 3000 2995 2983 2982 2982 2978 2977 2977 2980 2985
2997 3001 3004 3007 3010 3010 3015 3016 3014 3015 3014 3013 3015 3016 3015 3016 3017 3017 3016 3016 3016 3015 3013 3007 3005 3003 3006 3008 3010 3008 3008 3010 3007 3002 2998 2991 2985 2981 2979 2978 2976 2977 2979 2983 2984
2994 2998 3002 3005 3007 3008 3011 3011 3013 3011 3011 3012 3015 3016 3015 3015 3014 3014 3014 3012 3011 3010 3007 3006 3002 3000 3003 3004 3004 3005 3007 3007 3005 3001 2991 2978 2979 2983 2981 2981 2981 2979 2977 2979 2981
2994 2996 3000 3002 3003 3005 3007 3010 3010 3007 3008 3010 3013 3014 3014 3014 3013 3012 3011 3011 3011 3008 3008 3006 3004 2997 2998 2997 2998 3000 2999 3000 3002 3000 2994 2991 2986 2983 2984 2983 2982 2979 2977 2976 2976
2993 2995 2998 2999 3002 3002 3006 3005 3006 3005 3005 3007 3009 3010 3011 3011 3011 3010 3009 3010 3010 3008 3007 3006 3001 2998 2993 2992 2991 2993 2993 2995 2995 2992 2991 2988 2985 2986 2984 2982 2980 2978 2975 2974 2973
2990 2993 2996 2996 2998 3001 3000 3002 3003 3004 3007 3008 3009 3009 3009 3009 3010 3007 3007 3008 3006 3006 3005 3003 3000 2996 2989 2988 2987 2988 2988 2989 2987 2989 2987 2992 2986 2983 2982 2980 2978 2976 2974 2972 2971
2989 2992 2994 2994 2995 2997 2999 3001 3002 3002 3004 3005 3007 3007 3007 3007 3007 3006 3005 3005 3003 3002 3000 2999 2998 2998 2991 2985 2989 2986 2983 2982 2983 2984 2984 2985 2985 2983 2981 2980 2977 2976 2974 2972 2970
2988 2991 2992 2994 2995 2996 2997 3001 3004 3004 3003 3005 3006 3005 3005 3006 3005 3005 3003 3001 3000 2998 2997 2997 2993 2993 2988 2984 2986 2984 2980 2978 2979 2979 2981 2983 2983 2981 2979 2976 2976 2975 2973 2971 2969
2987 2992 2992 2993 2992 2996 2997 3001 3003 3004 3004 3005 3005 3004 3005 3004 3004 3001 3000 2998 2995 2993 2992 2990 2986 2986 2982 2982 2982 2978 2975 2976 2977 2973 2975 2979 2979 2975 2976 2973 2973 2974 2971 2969 2969
2987 2988 2988 2991 2993 2997 2999 3000 3001 3001 3003 3003 3003 3002 3001 3001 2999 2996 2993 2989 2987 2987 2986 2988 2985 2981 2976 2980 2978 2970 2968 2972 2975 2976 2976 2974 2975 2973 2974 2973 2973 2972 2970 2968 2968
Wind_Speed
32 32 33 31 31 30 30 30 31 31 30 30 30 30 30 30 28 29 28 28 28 24 24 23 23 20 21 22 23 22 32 42 34 30 32 25 24 26 20 24 26 25 22 20 22
34 31 31 31 33 33 32 33 34 34 33 33 31 29 29 31 30 27 28 25 26 25 25 22 23 21 24 24 25 29 38 39 29 28 29 26 25 20 25 26 25 23 23 22 30
37 35 34 35 36 36 36 36 35 35 33 32 30 27 26 27 24 24 14 12 13 16 18 17 19 15 18 18 20 27 44 32 31 28 27 27 29 25 22 26 24 22 25 29 29
40 39 39 37 38 37 36 37 36 33 32 30 27 23 21 19 9 17 14 17 17 16 14 11 11 19 21 24 23 31 31 33 33 29 30 32 27 28 31 30 26 29 23 25 29
40 40 42 40 40 38 36 35 33 31 29 27 24 21 20 21 18 29 18 16 17 17 15 14 12 12 19 21 23 29 31 32 32 32 34 33 32 33 35 31 29 29 30 30 33
42 42 42 41 41 38 36 35 33 31 26 23 21 20 22 22 19 23 15 15 14 13 11 9 11 11 16 19 22 24 27 28 29 32 33 33 37 34 40 33 36 34 35 35 36
45 43 40 42 40 36 34 33 31 27 22 19 19 20 22 15 19 19 17 16 14 13 12 10 12 15 14 15 18 23 26 28 30 30 33 30 38 37 36 32 34 35 32 34 35
45 44 40 38 36 34 30 28 25 20 17 15 16 18 18 17 15 18 18 17 17 17 16 18 17 15 17 18 23 23 24 29 25 24 28 27 43 30 27 26 29 27 29 29 31
47 42 35 31 31 29 24 19 16 14 14 15 16 17 13 9 11 11 7 6 8 10 14 18 19 16 14 19 22 21 28 27 31 28 23 22 31 25 20 21 20 22 22 24 26
48 46 31 25 23 20 16 14 13 11 10 10 14 9 6 2 12 10 5 6 8 10 12 13 13 14 18 21 26 20 23 25 26 18 18 26 32 27 25 27 29 29 23 24 25
42 30 20 19 17 15 13 11 10 10 10 9 11 13 13 16 18 17 16 14 14 11 14 13 14 20 18 20 22 24 25 27 28 25 25 29 33 36 33 31 34 33 29 29 26
23 19 17 16 15 12 11 11 9 7 12 11 11 11 10 10 8 8 10 13 13 15 13 14 21 16 17 18 21 22 25 27 27 27 27 30 36 35 34 34 34 33 30 31 27
22 17 16 15 15 14 12 10 7 7 11 11 12 10 8 6 3 2 2 13 13 15 16 21 19 16 13 17 20 23 24 24 28 26 27 29 37 36 34 29 26 21 32 29 31
17 16 17 18 16 14 11 8 4 5 8 8 9 8 6 2 2 4 3 9 10 16 17 21 20 22 23 24 20 24 21 24 24 24 25 22 22 33 29 22 21 22 19 19 26
17 19 18 17 13 14 9 5 4 3 4 10 8 10 6 5 4 9 7 3 10 12 12 14 12 15 18 18 19 26 19 20 19 24 28 30 27 30 31 29 25 19 13 14 19
19 19 18 16 14 10 7 5 5 4 6 7 5 6 3 9 5 8 8 7 7 11 15 21 19 18 18 16 17 17 18 20 22 25 18 37 28 32 31 7 4 12 11 6 13
20 18 15 14 11 10 7 5 2 7 9 5 6 4 4 7 12 14 13 13 10 13 16 18 20 22 20 16 13 14 13 12 15 13 13 14 14 30 3 4 3 3 4 8 11
17 15 15 12 10 9 8 6 6 1 6 6 2 7 14 14 15 15 16 19 17 19 24 23 22 19 21 19 12 17 16 13 9 7 12 18 8 2 13 10 10 12 13 19 16
19 16 13 11 10 10 10 5 3 4 2 6 12 11 11 9 9 9 12 16 19 20 25 18 24 6 7 13 13 12 20 20 27 30 21 20 26 3 8 9 4 5 11 15 23
16 15 13 12 10 9 10 6 3 10 12 6 3 4 7 9 8 8 11 8 12 10 10 12 20 22 19 15 17 22 12 10 9 4 8 10 9 8 7 9 14 12 7 7 11
15 15 13 10 8 10 7 6 4 11 7 2 3 8 8 10 12 13 11 16 15 14 16 14 13 23 23 20 19 21 23 22 13 12 3 4 4 7 15 15 12 12 12 11 6
13 9 10 7 9 6 5 5 8 3 5 1 3 3 4 6 10 12 14 15 18 25 21 17 18 21 25 26 22 21 24 23 19 9 13 17 7 6 12 10 11 9 12 16 10
11 8 7 7 7 6 11 8 4 1 1 1 1 3 4 6 6 6 10 12 15 16 16 17 10 15 20 23 22 22 21 25 18 15 15 7 7 17 12 9 11 13 15 13 11
9 5 5 6 8 11 6 4 1 5 2 2 2 3 2 4 5 9 15 14 15 15 19 17 18 17 21 15 19 20 18 22 17 17 9 14 12 14 8 4 11 15 18 12 11
8 6 6 4 4 5 5 5 5 2 4 2 7 4 3 9 11 15 14 15 14 15 16 19 24 25 28 31 22 24 28 18 22 21 15 11 10 8 9 5 8 12 19 13 10
9 6 9 6 7 6 4 4 5 3 3 3 9 9 9 13 15 19 17 16 20 15 14 18 23 24 30 25 22 28 25 12 16 20 10 13 7 9 4 2 12 14 15 12 13
9 8 10 8 2 5 5 5 5 5 5 8 9 11 12 16 20 22 25 27 26 25 24 21 19 11 22 19 21 18 23 15 11 9 11 5 2 5 10 10 14 13 15 9 11
Wind_Direction
303 303 302 299 298 299 300 301 302 304 305 305 306 305 301 296 293 287 285 277 274 273 273 270 266 259 250 242 218 231 242 250 251 256 267 269 266 263 258 258 252 247 250 237 240
298 299 301 301 299 299 298 299 301 303 303 303 302 300 296 294 294 288 287 279 273 273 273 269 266 260 249 244 231 223 235 246 253 260 267 271 275 280 259 254 254 246 238 243 245
297 295 297 298 300 297 296 297 299 300 301 302 301 299 296 295 296 290 286 288 281 277 275 268 256 246 243 243 234 235 242 252 256 261 265 271 270 261 264 252 247 256 258 235 243
293 289 293 296 300 295 293 294 296 297 299 298 299 297 291 287 281 270 273 281 279 275 275 274 253 236 237 242 242 246 252 257 261 267 271 274 270 265 260 256 257 253 249 246 240
287 280 286 289 296 293 289 290 292 294 294 293 291 289 285 279 278 270 281 282 272 272 263 258 251 242 241 249 254 249 254 258 261 264 265 271 269 266 255 260 257 252 249 247 244
280 275 279 281 287 288 286 290 292 291 289 286 285 281 279 282 277 283 284 271 270 258 256 228 236 243 255 255 255 260 262 266 262 264 265 267 267 264 265 264 261 254 247 246 251
275 270 271 276 280 281 283 287 286 285 281 281 282 282 280 282 273 276 279 272 264 254 240 242 238 237 251 266 264 264 267 267 264 268 265 266 265 258 266 266 265 257 253 252 245
271 265 264 269 273 281 283 279 279 278 280 282 282 281 284 282 265 269 268 263 254 246 240 225 218 249 245 256 260 264 267 272 271 270 269 255 260 268 268 262 270 270 262 250 249
270 262 259 263 272 275 274 273 274 275 278 278 275 274 276 268 264 258 249 250 270 273 252 246 246 242 250 253 264 257 261 266 277 271 277 253 264 269 267 269 261 258 256 257 254
268 258 249 264 265 263 263 264 265 264 265 259 263 264 258 204 249 266 257 246 241 250 254 250 244 243 241 233 244 261 267 272 280 279 279 269 269 274 269 268 262 255 256 251 243
260 246 250 254 251 249 249 246 245 255 229 256 238 266 249 262 272 281 264 259 243 233 240 238 226 230 241 246 259 267 274 280 278 282 288 278 276 278 274 271 268 260 242 252 236
236 233 233 232 232 226 223 226 230 247 270 278 275 268 273 277 285 283 244 242 231 235 241 236 236 248 255 256 261 264 272 274 278 285 282 283 277 278 275 266 265 266 252 243 246
220 215 217 214 210 212 213 223 227 257 282 276 261 242 247 246 240 296 295 223 226 240 240 244 249 250 254 257 262 262 267 277 278 283 282 282 277 284 287 279 273 261 251 246 236
205 206 206 200 200 204 212 217 237 289 276 237 243 233 211 151 278 279 319 216 243 244 250 257 256 254 263 263 264 269 271 277 284 278 278 286 300 286 287 286 258 266 270 252 232
197 201 194 194 203 209 204 211 226 232 263 180 180 211 186 184 267 275 292 256 235 244 242 248 259 257 255 265 262 266 272 273 275 277 282 279 275 278 283 277 258 239 257 245 242
191 188 189 194 200 201 197 203 223 179 232 166 199 169 194 243 258 252 302 271 247 255 257 260 256 248 256 258 259 267 269 265 271 268 270 265 266 270 267 291 18 117 104 168 228
188 187 186 190 193 194 196 201 187 240 162 159 179 231 222 240 274 263 267 256 265 261 267 273 252 253 247 250 249 253 263 260 267 252 247 340 318 253 165 180 218 92 181 213 182
177 187 193 190 187 186 188 187 245 251 119 180 258 266 272 276 270 267 270 262 265 264 271 270 275 266 220 231 241 236 237 240 273 285 309 304 270 42 91 151 149 178 204 225 215
185 186 187 188 194 191 190 194 315 16 208 263 293 283 278 260 232 274 279 273 278 273 279 300 268 203 204 226 235 249 242 253 263 276 282 265 253 119 62 56 186 213 243 245 235
183 188 189 196 198 191 194 202 257 253 258 287 285 281 278 278 300 295 289 281 313 332 289 281 297 257 247 238 229 233 246 250 257 266 267 266 275 52 267 343 350 333 314 241 207
183 188 188 193 192 195 175 211 197 264 270 217 252 270 277 287 282 286 274 278 306 302 331 308 280 272 258 207 219 227 237 243 257 250 279 297 300 73 5 357 351 349 356 340 252
185 183 190 195 184 179 189 198 236 238 312 304 276 281 281 297 296 289 284 278 284 283 295 299 283 283 261 248 232 249 243 238 230 251 266 278 287 14 340 340 6 335 341 349 306
166 198 190 179 149 167 223 233 186 47 222 219 249 275 284 302 310 304 298 300 301 295 291 274 265 286 268 257 245 241 252 238 243 247 240 272 294 328 343 342 332 357 345 341 337
167 179 176 186 188 183 180 169 161 225 219 183 253 297 291 290 287 300 300 295 312 281 287 266 263 262 272 275 313 296 276 263 267 230 253 256 309 325 314 304 285 340 336 340 355
187 167 171 167 151 162 164 158 204 251 303 231 269 259 276 305 296 297 297 303 298 296 279 268 268 264 269 275 281 286 277 280 285 265 235 255 278 315 316 293 313 330 341 329 345
183 153 134 167 190 150 185 198 208 238 247 198 250 256 277 286 287 296 295 286 293 295 286 272 262 262 265 276 280 293 263 271 288 257 252 240 229 320 342 163 324 332 325 324 335
184 170 146 206 140 151 259 212 209 236 280 260 271 276 285 287 284 284 272 274 276 276 279 279 287 306 264 274 282 283 239 244 240 256 247 259 37 314 323 321 312 325 336 346 324